Regional Weather Roundup
Issued by NWS

Home | Current Version | Previous Version | Text Only | Print | Product List | Glossary Off
Versions: 1 2 3 4 5 6 7 8 9 10 11 12 13 14 15 16 17 18 19 20 21 22 23 24 25 26 27 28 29 30 31 32 33 34 35 36 37 38 39 40 41 42 43 44 45 46 47 48 49 50

119
ASUS44 KLIX 200510
RWRLA
LOUISIANA WEATHER ROUNDUP
NATIONAL WEATHER SERVICE NEW ORLEANS LA
1200 AM CDT SAT SEP 20 2014

NOTE: "FAIR" INDICATES FEW OR NO CLOUDS BELOW 12,000 FEET WITH NO
      SIGNIFICANT WEATHER AND/OR OBSTRUCTIONS TO VISIBILITY.
      SKY/WX - SKY CONDITION AND SIGNIFICANT WEATHER.
      TMP - AIR TEMPERATURE.    DP   - DEWPOINT TEMPERATURE.
      RH  - RELATIVE HUMIDITY.  PRES - PRESSURE.
      HX  - HEAT INDEX.         WCI  - WIND CHILL INDEX.

*  THESE STATIONS ARE NOT NWS OR FAA STATIONS AND ARE NOT UNDER
   NWS QUALITY CONTROL.

LAZ040-048-061>063-065-066-069-200600-
SOUTHEAST LOUISIANA

CITY           SKY/WX    TMP DP  RH WIND       PRES   REMARKS
N.O. AUDUBON     N/A     78  70  75 MISG        N/A
N.O. INTL ARPT CLEAR     78  67  68 E5        29.95F
N.O. LAKEFRONT CLEAR     80  70  71 E9        29.96F
N.O. DOWNTOWN* FAIR      81  64  57 E5        29.96F
SLIDELL        CLEAR     71  68  90 N3        29.96F
BATON ROUGE    CLEAR     72  70  93 NE3       29.97S
BOOTHVILLE     CLEAR     81  72  74 E10       29.94F
BELLE CHASSE   CLEAR     76  67  73 E7        29.94F
BOGALUSA*      FAIR      71  68  89 CALM      30.00F FOG
GALLIANO*      NOT AVBL
NEW ROADS*     FAIR      72  72  98 CALM      29.97S
GONZALES*      FAIR      72  72 100 CALM      29.95F
HAMMOND*       CLEAR     72  68  88 CALM      29.98F
HOUMA*         CLEAR     74  66  77 NE5       29.94F
PORT FOURCHON* MOCLDY    81  72  74 E13G22    29.95F

$$

LAZ041-044-053-054-200600-
SOUTHWEST LOUISIANA

CITY           SKY/WX    TMP DP  RH WIND       PRES   REMARKS
LAKE CHARLES   CLEAR     76  72  87 E6        29.94F
LAFAYETTE      CLEAR     73  72  96 NE3       29.95F
PATTERSON      CLEAR     73  72  94 E6        29.96F
SALT POINT       N/A     76  73  91 VRB3      29.93F
NEW IBERIA     CLEAR     75  71  87 NE6       29.95F
CHENAULT AIRPK CLEAR     72  71  96 E3        29.95S

$$

LAZ027-028-200600-
CENTRAL LOUISIANA

CITY           SKY/WX    TMP DP  RH WIND       PRES   REMARKS
FORT POLK      CLEAR     74  70  87 E3        29.96F
ALEXANDRIA INT CLEAR     75  70  84 CALM      29.95S
ALEXANDRIA     CLEAR     73  70  90 CALM      29.97F

$$

LAZ001-002-200600-
NORTHWEST LOUISIANA

CITY           SKY/WX    TMP DP  RH WIND       PRES   REMARKS
SHREVEPORT     CLEAR     75  69  81 E5        29.96F
BARKSDALE AFB  CLEAR     72  68  89 E3        29.97S
DTN SHREVEPORT CLEAR     74  32  21 CALM      29.97S

$$

LAZ014-016-200600-
NORTHEAST LOUISIANA

CITY           SKY/WX    TMP DP  RH WIND       PRES   REMARKS
MONROE         CLEAR     71  69  93 CALM      29.99S
TALLULAH       CLEAR     70  68  93 CALM      29.98S

$$




USA.gov is the U.S. government's official web portal to all federal, state and local government web resources and services.